Regional Weather Roundup
Issued by NWS

Home | Current Version | Previous Version | Graphics & Text | Print | Product List | Glossary On
Versions: 1 2 3 4 5 6 7 8 9 10 11 12 13 14 15 16 17 18 19 20 21 22 23 24 25 26 27 28 29 30 31 32 33 34 35 36 37 38 39 40 41 42 43 44 45 46 47 48 49 50
000
ASUS43 KBIS 241731
RWRND
NORTH DAKOTA REGIONAL WEATHER ROUNDUP
NATIONAL WEATHER SERVICE EASTERN NORTH DAKOTA/GRAND FORKS ND
1200 PM CDT WED MAY 24 2017

  NOTE: "FAIR" INDICATES FEW OR NO CLOUDS BELOW 12,000 FEET WITH NO
  SIGNIFICANT WEATHER AND/OR OBSTRUCTIONS TO VISIBILITY.

NDZ001>003-009>011-017-241800-
...NORTHWEST NORTH DAKOTA...

CITY           SKY/WX    TMP DP  RH WIND       PRES   REMARKS
WILLISTON      FAIR      68  37  32 S24G33    29.45F
MINOT          FAIR      65  33  30 SE22G33   29.58F
MINOT AFB      FAIR      64  35  33 S28G36    29.56F
$$

NDZ018>021-031>035-040>046-241800-
...SOUTHWEST NORTH DAKOTA...

CITY           SKY/WX    TMP DP  RH WIND       PRES   REMARKS
BISMARCK       FAIR      63  40  42 SE22      29.68F
DICKINSON      FAIR      62  31  31 S31G37    29.53F
GARRISON         N/A     62  38  40 S22G29    29.59F
HETTINGER      FAIR      63  34  33 S18G32    29.60F
$$

NDZ004>008-012>016-024-026-027-054-241800-
...NORTHEAST NORTH DAKOTA...

CITY           SKY/WX    TMP DP  RH WIND       PRES   REMARKS
GRAND FORKS    FAIR      64  41  42 S16G25    29.74F
GRAND FORKS AF FAIR      63  41  45 SE13G22   29.74F
DEVILS LAKE    FAIR      60  42  51 SE20G29   29.70F
$$

NDZ022-023-025-028>030-036>039-047>053-241800-
...SOUTHEAST NORTH DAKOTA...

CITY           SKY/WX    TMP DP  RH WIND       PRES   REMARKS
JAMESTOWN      CLOUDY    57  43  59 SE17      29.71F
FARGO          PTSUNNY   62  43  49 SE8G20    29.75F
WAHPETON       CLOUDY    57  43  58 SE6       29.76F
$$




USA.gov is the U.S. government's official web portal to all federal, state and local government web resources and services.